XM-3 (RHYTHM)

Last updated on Wed Sep 17 2025 00:02:46 GMT+0000 (Coordinated Universal Time)

1 28626U 05008A 25259.55044721 -.00000219 00000+0 00000+0 0 9999 2 28626 0.0409 342.3673 0000156 249.2904 235.9389 1.00270304 39883
UTC large
Height (km)
Speed (km/s)
/
Latitude / Longitude
Inclination (degrees)
Orbital Period (minutes)
Azimuth
Elevation
Range (km)
Doppler Factor

Next 0 passes for location: London (51.5072 / 0.1276)

Sorry there are no passes over London.